This is the latest recevied weather packets stored in our database for station/object KD4EED. If no packets are shown the sender has not sent any weather packets the latest 10 day(s).
| Time | Temp. | Humidity | Pressure | Rain* | Wind** | Luminosity | Snow |
|---|---|---|---|---|---|---|---|
| 1788663509 | 25.56° C | 50% | 1009.6 hPa | - | - | 0 W/m² | - |
| 1788663203 | 25.56° C | 51% | 1009.5 hPa | - | - | 0 W/m² | - |
| 1788662902 | 25.56° C | 48% | 1009.7 hPa | - | - | 0 W/m² | - |
| 1788662601 | 25.56° C | 46% | 1009.7 hPa | - | - | 0 W/m² | - |
| 1788662297 | 25.56° C | 44% | 1009.8 hPa | - | - | 0 W/m² | - |
| 1788661992 | 25.56° C | 44% | 1009.6 hPa | - | - | 0 W/m² | - |
| 1788661688 | 26.11° C | 41% | 1009.7 hPa | - | - | 0 W/m² | - |
| 1788661383 | 26.11° C | 40% | 1009.8 hPa | - | - | 1 W/m² | - |
| 1788661079 | 26.11° C | 38% | 1009.7 hPa | - | - | 1 W/m² | - |
| 1788660778 | 26.67° C | 37% | 1009.7 hPa | - | - | 2 W/m² | - |
| 1788660473 | 26.67° C | 37% | 1009.7 hPa | - | - | 4 W/m² | - |
| 1788660173 | 26.67° C | 39% | 1009.4 hPa | - | - | 6 W/m² | - |
| 1788659872 | 27.22° C | 40% | 1009.6 hPa | - | - | 9 W/m² | - |
| 1788659571 | 27.78° C | 38% | 1009.5 hPa | - | - | 14 W/m² | - |
| 1788659266 | 27.78° C | 37% | 1009.5 hPa | - | - | 22 W/m² | - |
| 1788658961 | 27.78° C | 36% | 1009.5 hPa | - | - | 29 W/m² | - |
| 1788658658 | 27.78° C | 37% | 1009.6 hPa | - | - | 41 W/m² | - |
| 1788658357 | 27.78° C | 39% | 1009.6 hPa | - | - | 46 W/m² | - |
| 1788658053 | 27.78° C | 40% | 1009.6 hPa | - | - | 57 W/m² | - |
| 1788657748 | 27.78° C | 42% | 1009.6 hPa | - | - | 70 W/m² | - |
| 1788657443 | 28.33° C | 41% | 1009.7 hPa | - | - | 77 W/m² | - |
| 1788657143 | 28.33° C | 41% | 1009.6 hPa | - | - | 84 W/m² | - |
| 1788656838 | 28.89° C | 39% | 1009.5 hPa | - | - | 62 W/m² | - |
| 1788656563 | 29.44° C | 37% | 1009.4 hPa | - | - | 67 W/m² | - |
| 1788656229 | 29.44° C | 38% | 1009.7 hPa | - | - | 75 W/m² | - |
* Rain since midnight (hover to see other rain measurements)
** Current wind speed in m/s (hover to see current wind gust speed)